DAL1748 KBOS-KDTW

Flight info

Callsign DAL1748
Flight time 1h 40m
Altitude 38000
Route HYLND7 HYLND CAM Q822 GONZZ DONEO TPGUN2
Aircraft A320/M-SDE3FGHIRWY/LB1

Departure

Time 2026-05-07 20:55
Airport Boston Logan International Airport (KBOS)

Arrival

Time 2026-05-07 22:36
Airport Detroit Metropolitan Wayne County Airport (KDTW)
Time Latitude Longitude Altitude Speed Heading
2026-05-07 19:54 42.36268 -71.02433 26 ft 0 kts 273°
2026-05-07 20:41 42.36268 -71.02432 25 ft 1 kts 273°
2026-05-07 20:41 42.36267 -71.02400 30 ft 4 kts 269°
2026-05-07 20:41 42.36269 -71.02364 29 ft 4 kts 250°
2026-05-07 20:41 42.36282 -71.02341 31 ft 2 kts 186°
2026-05-07 20:42 42.36284 -71.02340 29 ft 0 kts 184°
2026-05-07 20:46 42.36244 -71.02343 28 ft 12 kts 184°
2026-05-07 20:46 42.36166 -71.02349 25 ft 11 kts 180°
2026-05-07 20:46 42.36099 -71.02329 26 ft 9 kts 158°
2026-05-07 20:46 42.36046 -71.02282 25 ft 12 kts 136°
2026-05-07 20:47 42.35989 -71.02162 27 ft 15 kts 120°
2026-05-07 20:47 42.35939 -71.02044 27 ft 14 kts 118°
2026-05-07 20:47 42.35892 -71.01939 27 ft 12 kts 120°
2026-05-07 20:47 42.35857 -71.01841 25 ft 11 kts 108°
2026-05-07 20:48 42.35841 -71.01747 27 ft 10 kts 101°
2026-05-07 20:48 42.35846 -71.01676 26 ft 6 kts 68°
2026-05-07 20:48 42.35877 -71.01654 28 ft 7 kts 21°
2026-05-07 20:48 42.35943 -71.01621 28 ft 11 kts 22°
2026-05-07 20:49 42.36018 -71.01587 25 ft 11 kts 19°
2026-05-07 20:49 42.36093 -71.01551 27 ft 11 kts 19°
2026-05-07 20:49 42.36168 -71.01515 25 ft 12 kts 19°
2026-05-07 20:49 42.36246 -71.01477 25 ft 12 kts 20°
2026-05-07 20:50 42.36327 -71.01437 28 ft 13 kts 20°
2026-05-07 20:50 42.36348 -71.01349 30 ft 11 kts 117°
2026-05-07 20:50 42.36313 -71.01265 27 ft 10 kts 119°
2026-05-07 20:50 42.36264 -71.01155 27 ft 18 kts 121°
2026-05-07 20:51 42.36212 -71.01014 28 ft 16 kts 115°
2026-05-07 20:51 42.36171 -71.00880 27 ft 15 kts 112°
2026-05-07 20:51 42.36133 -71.00759 27 ft 13 kts 112°
2026-05-07 20:51 42.36100 -71.00638 27 ft 19 kts 109°
2026-05-07 20:52 42.36058 -71.00461 28 ft 19 kts 107°
2026-05-07 20:52 42.36015 -71.00300 27 ft 18 kts 110°
2026-05-07 20:52 42.35975 -71.00151 28 ft 16 kts 110°
2026-05-07 20:52 42.35918 -71.00030 27 ft 15 kts 134°
2026-05-07 20:53 42.35850 -70.99938 27 ft 13 kts 135°
2026-05-07 20:53 42.35787 -70.99855 25 ft 12 kts 136°
2026-05-07 20:53 42.35699 -70.99740 25 ft 19 kts 136°
2026-05-07 20:53 42.35610 -70.99620 25 ft 17 kts 135°
2026-05-07 20:54 42.35528 -70.99509 29 ft 16 kts 133°
2026-05-07 20:54 42.35482 -70.99390 25 ft 13 kts 81°
2026-05-07 20:54 42.35526 -70.99299 27 ft 11 kts 20°
2026-05-07 20:54 42.35622 -70.99374 25 ft 29 kts 315°
2026-05-07 20:55 42.35919 -70.99777 28 ft 94 kts 315°
2026-05-07 20:55 42.36518 -71.00586 28 ft 148 kts 315°
2026-05-07 20:55 42.37312 -71.01621 418 ft 163 kts 315°
2026-05-07 20:55 42.38140 -71.02694 1108 ft 166 kts 313°
2026-05-07 20:56 42.38780 -71.03985 1840 ft 170 kts 299°
2026-05-07 20:56 42.39395 -71.05459 2382 ft 189 kts 300°
2026-05-07 20:56 42.40104 -71.07081 2791 ft 213 kts 302°
2026-05-07 20:56 42.40941 -71.08892 3193 ft 240 kts 305°
2026-05-07 20:57 42.42215 -71.10386 4020 ft 251 kts 335°
2026-05-07 20:57 42.43876 -71.11235 4954 ft 256 kts 338°
2026-05-07 20:57 42.45553 -71.12098 5872 ft 259 kts 336°
2026-05-07 20:57 42.47236 -71.12996 6807 ft 260 kts 335°
2026-05-07 20:58 42.48926 -71.13937 7652 ft 265 kts 333°
2026-05-07 20:58 42.50629 -71.14899 8573 ft 266 kts 332°
2026-05-07 20:58 42.52354 -71.15825 9514 ft 268 kts 334°
2026-05-07 20:58 42.54124 -71.16671 10302 ft 274 kts 334°
2026-05-07 20:59 42.56008 -71.17540 10579 ft 298 kts 334°
2026-05-07 20:59 42.58037 -71.18462 10947 ft 315 kts 334°
2026-05-07 20:59 42.60145 -71.19409 11610 ft 323 kts 334°
2026-05-07 20:59 42.62299 -71.20367 12305 ft 329 kts 333°
2026-05-07 21:00 42.64491 -71.21344 13013 ft 334 kts 333°
2026-05-07 21:00 42.66713 -71.22342 13693 ft 339 kts 332°
2026-05-07 21:00 42.68965 -71.23364 14303 ft 344 kts 332°
2026-05-07 21:00 42.71254 -71.24411 14905 ft 349 kts 331°
2026-05-07 21:01 42.73555 -71.25505 15512 ft 350 kts 327°
2026-05-07 21:01 42.75615 -71.27143 16095 ft 338 kts 311°
2026-05-07 21:01 42.77234 -71.29389 16697 ft 328 kts 297°
2026-05-07 21:01 42.78343 -71.32045 17309 ft 320 kts 284°
2026-05-07 21:02 42.78924 -71.34927 17949 ft 314 kts 272°
2026-05-07 21:02 42.79242 -71.37874 18503 ft 317 kts 272°
2026-05-07 21:02 42.79572 -71.40920 18723 ft 331 kts 272°
2026-05-07 21:02 42.79915 -71.44043 19202 ft 336 kts 272°
2026-05-07 21:03 42.80267 -71.47190 19788 ft 337 kts 272°
2026-05-07 21:03 42.80621 -71.50352 20375 ft 339 kts 272°
2026-05-07 21:03 42.80976 -71.53528 20954 ft 340 kts 272°
2026-05-07 21:03 42.81329 -71.56718 21517 ft 341 kts 272°
2026-05-07 21:04 42.81681 -71.59915 22066 ft 342 kts 271°
2026-05-07 21:04 42.82032 -71.63125 22604 ft 343 kts 271°
2026-05-07 21:04 42.82382 -71.66350 23139 ft 345 kts 271°
2026-05-07 21:04 42.82733 -71.69589 23588 ft 346 kts 271°
2026-05-07 21:05 42.83085 -71.72846 23975 ft 349 kts 271°
2026-05-07 21:05 42.83441 -71.76124 24340 ft 351 kts 271°
2026-05-07 21:05 42.83797 -71.79422 24707 ft 353 kts 271°
2026-05-07 21:05 42.84155 -71.82741 25064 ft 355 kts 271°
2026-05-07 21:06 42.84517 -71.86085 25413 ft 358 kts 271°
2026-05-07 21:06 42.84879 -71.89446 25746 ft 360 kts 271°
2026-05-07 21:06 42.85244 -71.92832 26081 ft 363 kts 272°
2026-05-07 21:06 42.85611 -71.96256 26416 ft 365 kts 271°
2026-05-07 21:07 42.85971 -71.99686 26727 ft 367 kts 271°
2026-05-07 21:07 42.86333 -72.03147 27038 ft 370 kts 271°
2026-05-07 21:07 42.86699 -72.06624 27354 ft 372 kts 272°
2026-05-07 21:07 42.87068 -72.10120 27638 ft 373 kts 272°
2026-05-07 21:08 42.87439 -72.13633 27922 ft 376 kts 272°
2026-05-07 21:08 42.87806 -72.17127 28185 ft 378 kts 272°
2026-05-07 21:08 42.88178 -72.20689 28451 ft 380 kts 272°
2026-05-07 21:08 42.88550 -72.24275 28712 ft 383 kts 272°
2026-05-07 21:09 42.88921 -72.27876 28956 ft 385 kts 272°
2026-05-07 21:09 42.89296 -72.31500 29189 ft 387 kts 272°
2026-05-07 21:09 42.89673 -72.35134 29398 ft 388 kts 272°
2026-05-07 21:09 42.90052 -72.38792 29614 ft 390 kts 272°
2026-05-07 21:10 42.90429 -72.42454 29891 ft 390 kts 272°
2026-05-07 21:10 42.90803 -72.46111 30149 ft 389 kts 272°
2026-05-07 21:10 42.91171 -72.49761 30406 ft 388 kts 272°
2026-05-07 21:10 42.91538 -72.53404 30681 ft 387 kts 272°
2026-05-07 21:11 42.91904 -72.57040 30943 ft 386 kts 271°
2026-05-07 21:11 42.92269 -72.60663 31184 ft 385 kts 272°
2026-05-07 21:11 42.92997 -72.67901 31705 ft 384 kts 271°
2026-05-07 21:12 42.93355 -72.71506 31961 ft 383 kts 271°
2026-05-07 21:12 42.93713 -72.75109 32193 ft 383 kts 271°
2026-05-07 21:12 42.94069 -72.78710 32429 ft 382 kts 271°
2026-05-07 21:12 42.94424 -72.82300 32697 ft 381 kts 271°
2026-05-07 21:13 42.94776 -72.85883 32969 ft 381 kts 271°
2026-05-07 21:13 42.95125 -72.89465 33225 ft 380 kts 271°
2026-05-07 21:13 42.95471 -72.93037 33444 ft 380 kts 271°
2026-05-07 21:13 42.95817 -72.96607 33721 ft 379 kts 271°
2026-05-07 21:14 42.96162 -73.00174 33950 ft 379 kts 271°
2026-05-07 21:14 42.96394 -73.02593 34079 ft 379 kts 271°
2026-05-07 21:14 42.96737 -73.06156 34260 ft 379 kts 271°
2026-05-07 21:14 42.97081 -73.09725 34455 ft 379 kts 271°
2026-05-07 21:15 42.97427 -73.13294 34657 ft 379 kts 271°
2026-05-07 21:15 42.97769 -73.16820 34874 ft 379 kts 271°
2026-05-07 21:15 42.98114 -73.20388 35077 ft 379 kts 271°
2026-05-07 21:15 42.98454 -73.23951 35272 ft 379 kts 271°
2026-05-07 21:16 42.98789 -73.27519 35463 ft 378 kts 271°
2026-05-07 21:16 42.99124 -73.31088 35647 ft 378 kts 271°
2026-05-07 21:16 42.99433 -73.34650 35809 ft 376 kts 268°
2026-05-07 21:16 42.99528 -73.38211 35990 ft 375 kts 266°
2026-05-07 21:17 42.99614 -73.41772 36155 ft 375 kts 267°
2026-05-07 21:17 42.99702 -73.45337 36312 ft 375 kts 267°
2026-05-07 21:17 42.99791 -73.48892 36470 ft 375 kts 267°
2026-05-07 21:17 42.99877 -73.52456 36625 ft 375 kts 267°
2026-05-07 21:18 42.99961 -73.56019 36792 ft 375 kts 267°
2026-05-07 21:18 43.00044 -73.59579 36947 ft 375 kts 267°
2026-05-07 21:18 43.00127 -73.63143 37101 ft 375 kts 267°
2026-05-07 21:18 43.00211 -73.66705 37240 ft 375 kts 267°
2026-05-07 21:19 43.00293 -73.70272 37382 ft 375 kts 267°
2026-05-07 21:19 43.00373 -73.73835 37523 ft 375 kts 267°
2026-05-07 21:19 43.00452 -73.77399 37659 ft 375 kts 267°
2026-05-07 21:19 43.00530 -73.80957 37831 ft 374 kts 267°
2026-05-07 21:20 43.00683 -73.88152 37891 ft 379 kts 267°
2026-05-07 21:20 43.00832 -73.95333 37886 ft 383 kts 267°
2026-05-07 21:21 43.00976 -74.02627 37890 ft 385 kts 267°
2026-05-07 21:21 43.01114 -74.09979 37888 ft 388 kts 267°
2026-05-07 21:22 43.01255 -74.17369 37891 ft 390 kts 267°
2026-05-07 21:22 43.01387 -74.24800 37894 ft 391 kts 267°
2026-05-07 21:23 43.01636 -74.32256 37891 ft 394 kts 269°
2026-05-07 21:23 43.02025 -74.39739 37885 ft 395 kts 270°
2026-05-07 21:24 43.02401 -74.47242 37885 ft 396 kts 269°
2026-05-07 21:24 43.02731 -74.54772 37880 ft 397 kts 269°
2026-05-07 21:25 43.03048 -74.62318 37881 ft 398 kts 269°
2026-05-07 21:25 43.03370 -74.69836 37908 ft 393 kts 269°
2026-05-07 21:26 43.03692 -74.77262 37905 ft 391 kts 269°
2026-05-07 21:26 43.04002 -74.84687 37911 ft 391 kts 269°
2026-05-07 21:27 43.04301 -74.92124 37910 ft 392 kts 269°
2026-05-07 21:27 43.04596 -74.99564 37911 ft 392 kts 269°
2026-05-07 21:28 43.04893 -75.07027 37919 ft 393 kts 269°
2026-05-07 21:28 43.05175 -75.14447 37922 ft 394 kts 269°
2026-05-07 21:29 43.05456 -75.21930 37927 ft 394 kts 269°
2026-05-07 21:29 43.05735 -75.29413 37928 ft 394 kts 269°
2026-05-07 21:30 43.05972 -75.36915 37918 ft 395 kts 269°
2026-05-07 21:30 43.06174 -75.44421 37932 ft 395 kts 269°
2026-05-07 21:31 43.06371 -75.51935 37937 ft 396 kts 269°
2026-05-07 21:31 43.06569 -75.59454 37942 ft 396 kts 269°
2026-05-07 21:32 43.06765 -75.66973 37943 ft 396 kts 269°
2026-05-07 21:32 43.06965 -75.74544 37935 ft 396 kts 269°
2026-05-07 21:33 43.07151 -75.82022 37948 ft 396 kts 269°
2026-05-07 21:33 43.07331 -75.89599 37944 ft 396 kts 269°
2026-05-07 21:34 43.07505 -75.97077 37946 ft 396 kts 269°
2026-05-07 21:34 43.07676 -76.04609 37937 ft 396 kts 269°
2026-05-07 21:35 43.07847 -76.12155 37934 ft 396 kts 269°
2026-05-07 21:35 43.08009 -76.19691 37941 ft 396 kts 269°
2026-05-07 21:36 43.08166 -76.27229 37942 ft 396 kts 269°
2026-05-07 21:36 43.08317 -76.34770 37944 ft 396 kts 269°
2026-05-07 21:37 43.08465 -76.42305 37946 ft 396 kts 269°
2026-05-07 21:37 43.08604 -76.49852 37955 ft 397 kts 269°
2026-05-07 21:38 43.08746 -76.57394 37959 ft 397 kts 269°
2026-05-07 21:38 43.08880 -76.64942 37963 ft 397 kts 269°
2026-05-07 21:39 43.08611 -76.72444 37968 ft 395 kts 262°
2026-05-07 21:39 43.07957 -76.79907 37969 ft 395 kts 262°
2026-05-07 21:40 43.07306 -76.87368 37970 ft 395 kts 262°
2026-05-07 21:40 43.06647 -76.94829 37971 ft 395 kts 262°
2026-05-07 21:41 43.05984 -77.02280 37971 ft 395 kts 262°
2026-05-07 21:41 43.05316 -77.09735 37970 ft 395 kts 262°
2026-05-07 21:42 43.04641 -77.17187 37952 ft 395 kts 262°
2026-05-07 21:42 43.03962 -77.24629 37947 ft 395 kts 262°
2026-05-07 21:43 43.03278 -77.32064 37942 ft 394 kts 262°
2026-05-07 21:43 43.02586 -77.39498 37943 ft 394 kts 262°
2026-05-07 21:44 43.01893 -77.46927 37947 ft 394 kts 262°
2026-05-07 21:44 43.01195 -77.54347 37955 ft 394 kts 262°
2026-05-07 21:45 43.00494 -77.61772 37952 ft 394 kts 262°
2026-05-07 21:45 42.99794 -77.69196 37952 ft 394 kts 262°
2026-05-07 21:46 42.99081 -77.76616 37953 ft 394 kts 262°
2026-05-07 21:46 42.98358 -77.84045 37955 ft 394 kts 262°
2026-05-07 21:47 42.97637 -77.91465 37945 ft 394 kts 262°
2026-05-07 21:47 42.96917 -77.98889 37939 ft 395 kts 262°
2026-05-07 21:48 42.96186 -78.06319 37928 ft 395 kts 262°
2026-05-07 21:48 42.95453 -78.13701 37931 ft 395 kts 262°
2026-05-07 21:49 42.94710 -78.21143 37929 ft 396 kts 262°
2026-05-07 21:49 42.93960 -78.28581 37937 ft 396 kts 262°
2026-05-07 21:50 42.93205 -78.36026 37935 ft 396 kts 262°
2026-05-07 21:50 42.92443 -78.43473 37941 ft 397 kts 262°
2026-05-07 21:51 42.91679 -78.50929 37942 ft 397 kts 262°
2026-05-07 21:51 42.90903 -78.58393 37943 ft 397 kts 261°
2026-05-07 21:52 42.90126 -78.65865 37941 ft 398 kts 262°
2026-05-07 21:52 42.89346 -78.73341 37937 ft 398 kts 262°
2026-05-07 21:53 42.88692 -78.79561 37944 ft 399 kts 262°
2026-05-07 21:53 42.87902 -78.87044 37940 ft 399 kts 262°
2026-05-07 21:54 42.87104 -78.94581 37953 ft 399 kts 262°
2026-05-07 21:54 42.86303 -79.02028 37959 ft 399 kts 262°
2026-05-07 21:55 42.85495 -79.09516 37961 ft 399 kts 261°
2026-05-07 21:55 42.84683 -79.16991 37959 ft 399 kts 262°
2026-05-07 21:56 42.83865 -79.24473 37969 ft 399 kts 261°
2026-05-07 21:56 42.83041 -79.31953 37969 ft 399 kts 261°
2026-05-07 21:57 42.82215 -79.39440 37972 ft 399 kts 262°
2026-05-07 21:57 42.81382 -79.46918 37977 ft 400 kts 261°
2026-05-07 21:58 42.80542 -79.54406 37976 ft 400 kts 261°
2026-05-07 21:58 42.79700 -79.61896 37976 ft 400 kts 261°
2026-05-07 21:59 42.78849 -79.69378 37982 ft 400 kts 261°
2026-05-07 21:59 42.78044 -79.76873 37983 ft 400 kts 263°
2026-05-07 22:00 42.77438 -79.84410 37991 ft 400 kts 264°
2026-05-07 22:00 42.76870 -79.91944 37985 ft 400 kts 264°
2026-05-07 22:01 42.76255 -79.99461 37988 ft 400 kts 263°
2026-05-07 22:01 42.75605 -80.06974 37989 ft 400 kts 263°
2026-05-07 22:02 42.74948 -80.14486 37989 ft 400 kts 263°
2026-05-07 22:02 42.74295 -80.22003 37989 ft 400 kts 263°
2026-05-07 22:03 42.73644 -80.29527 37985 ft 400 kts 263°
2026-05-07 22:03 42.72988 -80.37043 37990 ft 400 kts 264°
2026-05-07 22:04 42.72542 -80.44573 37973 ft 399 kts 266°
2026-05-07 22:04 42.72282 -80.52138 37627 ft 404 kts 267°
2026-05-07 22:05 42.72154 -80.55964 37365 ft 405 kts 266°
2026-05-07 22:05 42.72012 -80.59785 37105 ft 404 kts 266°
2026-05-07 22:05 42.71857 -80.63582 36678 ft 400 kts 266°
2026-05-07 22:05 42.71695 -80.67332 36263 ft 395 kts 266°
2026-05-07 22:06 42.71527 -80.71031 35846 ft 389 kts 266°
2026-05-07 22:06 42.71359 -80.74679 35446 ft 384 kts 265°
2026-05-07 22:06 42.71192 -80.78276 35047 ft 379 kts 265°
2026-05-07 22:06 42.71030 -80.81824 34652 ft 374 kts 265°
2026-05-07 22:07 42.70867 -80.85337 34267 ft 369 kts 265°
2026-05-07 22:07 42.70705 -80.88801 33874 ft 364 kts 265°
2026-05-07 22:07 42.70547 -80.92218 33418 ft 360 kts 265°
2026-05-07 22:07 42.70389 -80.95597 32968 ft 357 kts 265°
2026-05-07 22:08 42.70231 -80.98947 32522 ft 353 kts 265°
2026-05-07 22:08 42.70073 -81.02263 32089 ft 350 kts 265°
2026-05-07 22:08 42.69915 -81.05546 31661 ft 346 kts 265°
2026-05-07 22:08 42.69761 -81.08755 31249 ft 344 kts 265°
2026-05-07 22:09 42.69604 -81.12027 30821 ft 341 kts 265°
2026-05-07 22:09 42.69450 -81.15223 30417 ft 337 kts 265°
2026-05-07 22:09 42.69297 -81.18392 30012 ft 335 kts 265°
2026-05-07 22:09 42.69142 -81.21539 29525 ft 333 kts 265°
2026-05-07 22:10 42.68985 -81.24627 29037 ft 331 kts 265°
2026-05-07 22:10 42.68824 -81.27742 28567 ft 329 kts 265°
2026-05-07 22:10 42.68665 -81.30840 28100 ft 328 kts 265°
2026-05-07 22:10 42.68509 -81.33932 27641 ft 327 kts 265°
2026-05-07 22:11 42.68330 -81.37009 27177 ft 326 kts 264°
2026-05-07 22:11 42.68095 -81.40067 26734 ft 325 kts 263°
2026-05-07 22:11 42.67825 -81.43152 26292 ft 324 kts 263°
2026-05-07 22:11 42.67609 -81.45534 25951 ft 324 kts 263°
2026-05-07 22:12 42.67332 -81.48570 25522 ft 323 kts 263°
2026-05-07 22:12 42.67055 -81.51671 25105 ft 337 kts 263°
2026-05-07 22:12 42.66773 -81.54848 24693 ft 340 kts 263°
2026-05-07 22:12 42.66494 -81.58046 24272 ft 341 kts 263°
2026-05-07 22:13 42.66217 -81.61250 23873 ft 340 kts 263°
2026-05-07 22:13 42.65945 -81.64440 23466 ft 340 kts 264°
2026-05-07 22:13 42.65672 -81.67629 22978 ft 339 kts 264°
2026-05-07 22:13 42.65399 -81.70799 22499 ft 337 kts 264°
2026-05-07 22:14 42.65123 -81.73945 22026 ft 334 kts 264°
2026-05-07 22:14 42.64848 -81.77071 21561 ft 332 kts 264°
2026-05-07 22:14 42.64575 -81.80176 21105 ft 330 kts 264°
2026-05-07 22:14 42.64301 -81.83264 20656 ft 328 kts 264°
2026-05-07 22:15 42.64029 -81.86330 20210 ft 326 kts 264°
2026-05-07 22:15 42.63756 -81.89378 19775 ft 324 kts 264°
2026-05-07 22:15 42.63483 -81.92413 19346 ft 322 kts 264°
2026-05-07 22:15 42.63212 -81.95428 18922 ft 321 kts 264°
2026-05-07 22:16 42.62943 -81.98427 18500 ft 319 kts 264°
2026-05-07 22:16 42.62676 -82.01408 18067 ft 317 kts 264°
2026-05-07 22:16 42.62412 -82.04376 17594 ft 315 kts 264°
2026-05-07 22:16 42.62149 -82.07322 17126 ft 313 kts 264°
2026-05-07 22:17 42.61883 -82.10251 16662 ft 311 kts 264°
2026-05-07 22:17 42.61619 -82.13161 16239 ft 309 kts 264°
2026-05-07 22:17 42.61359 -82.16044 15872 ft 307 kts 264°
2026-05-07 22:17 42.61100 -82.18912 15508 ft 305 kts 264°
2026-05-07 22:18 42.60841 -82.21762 15146 ft 303 kts 264°
2026-05-07 22:18 42.60315 -82.27410 14441 ft 300 kts 264°
2026-05-07 22:18 42.60050 -82.30216 14099 ft 298 kts 264°
2026-05-07 22:19 42.59791 -82.33005 13807 ft 297 kts 264°
2026-05-07 22:19 42.59536 -82.35778 13485 ft 296 kts 264°
2026-05-07 22:19 42.59282 -82.38540 13145 ft 295 kts 264°
2026-05-07 22:19 42.58996 -82.41287 12814 ft 294 kts 260°
2026-05-07 22:20 42.58369 -82.43930 12484 ft 295 kts 250°
2026-05-07 22:20 42.57571 -82.46499 12161 ft 294 kts 250°
2026-05-07 22:20 42.56790 -82.49020 11841 ft 293 kts 250°
2026-05-07 22:20 42.56006 -82.51566 11526 ft 292 kts 250°
2026-05-07 22:21 42.55223 -82.54102 11213 ft 291 kts 250°
2026-05-07 22:21 42.54443 -82.56627 10900 ft 290 kts 250°
2026-05-07 22:21 42.53664 -82.59138 10593 ft 289 kts 250°
2026-05-07 22:21 42.52885 -82.61644 10286 ft 288 kts 250°
2026-05-07 22:22 42.52106 -82.64146 9985 ft 287 kts 250°
2026-05-07 22:22 42.51330 -82.66643 9675 ft 286 kts 250°
2026-05-07 22:22 42.50565 -82.69102 9338 ft 279 kts 250°
2026-05-07 22:22 42.49808 -82.71494 9010 ft 273 kts 250°
2026-05-07 22:23 42.49067 -82.73830 8687 ft 267 kts 251°
2026-05-07 22:23 42.48662 -82.76223 8362 ft 258 kts 268°
2026-05-07 22:23 42.48838 -82.78599 8043 ft 251 kts 285°
2026-05-07 22:23 42.49531 -82.80744 7717 ft 247 kts 297°
2026-05-07 22:24 42.50360 -82.82760 7421 ft 243 kts 297°
2026-05-07 22:24 42.51164 -82.84746 7117 ft 238 kts 297°
2026-05-07 22:24 42.51942 -82.86673 6950 ft 227 kts 297°
2026-05-07 22:24 42.52673 -82.88486 6952 ft 212 kts 296°
2026-05-07 22:25 42.53365 -82.90214 6953 ft 207 kts 296°
2026-05-07 22:25 42.54046 -82.91931 6954 ft 207 kts 296°
2026-05-07 22:25 42.54726 -82.93648 6952 ft 207 kts 296°
2026-05-07 22:25 42.55413 -82.95387 6668 ft 209 kts 296°
2026-05-07 22:26 42.56077 -82.97134 6368 ft 208 kts 290°
2026-05-07 22:26 42.56289 -82.98619 6119 ft 206 kts 269°
2026-05-07 22:26 42.55905 -83.00485 5845 ft 210 kts 241°
2026-05-07 22:26 42.54876 -83.01909 5535 ft 215 kts 223°
2026-05-07 22:27 42.53695 -83.03164 5214 ft 216 kts 222°
2026-05-07 22:27 42.52515 -83.04415 5015 ft 212 kts 222°
2026-05-07 22:27 42.51384 -83.05611 4990 ft 200 kts 222°
2026-05-07 22:27 42.50318 -83.06736 4990 ft 190 kts 223°
2026-05-07 22:28 42.49280 -83.07839 4991 ft 189 kts 223°
2026-05-07 22:28 42.48248 -83.08937 4982 ft 189 kts 223°
2026-05-07 22:28 42.47199 -83.10053 4665 ft 193 kts 223°
2026-05-07 22:28 42.46140 -83.11181 4349 ft 195 kts 223°
2026-05-07 22:29 42.45064 -83.12326 4040 ft 198 kts 222°
2026-05-07 22:29 42.43976 -83.13486 3724 ft 200 kts 222°
2026-05-07 22:29 42.42875 -83.14656 3465 ft 201 kts 223°
2026-05-07 22:29 42.41791 -83.15805 3216 ft 196 kts 222°
2026-05-07 22:30 42.40733 -83.16923 3002 ft 189 kts 222°
2026-05-07 22:30 42.39737 -83.17971 2988 ft 173 kts 223°
2026-05-07 22:30 42.38836 -83.18918 2988 ft 156 kts 223°
2026-05-07 22:30 42.38020 -83.19776 2986 ft 142 kts 224°
2026-05-07 22:31 42.37508 -83.20317 2987 ft 140 kts 225°
2026-05-07 22:31 42.36752 -83.21123 2991 ft 137 kts 224°
2026-05-07 22:31 42.36006 -83.21917 3002 ft 136 kts 224°
2026-05-07 22:31 42.35263 -83.22708 2994 ft 135 kts 224°
2026-05-07 22:32 42.34523 -83.23493 3005 ft 135 kts 224°
2026-05-07 22:32 42.33775 -83.24288 2806 ft 138 kts 223°
2026-05-07 22:32 42.33001 -83.25061 2526 ft 138 kts 220°
2026-05-07 22:32 42.32192 -83.25757 2225 ft 137 kts 217°
2026-05-07 22:33 42.31379 -83.26406 2056 ft 135 kts 216°
2026-05-07 22:33 42.30557 -83.27036 1969 ft 135 kts 215°
2026-05-07 22:33 42.29734 -83.27646 1945 ft 135 kts 216°
2026-05-07 22:33 42.28897 -83.28278 2036 ft 142 kts 216°
2026-05-07 22:34 42.28019 -83.28936 1999 ft 146 kts 215°
2026-05-07 22:34 42.27128 -83.29589 1789 ft 144 kts 214°
2026-05-07 22:34 42.26249 -83.30236 1624 ft 146 kts 216°
2026-05-07 22:34 42.25368 -83.30891 1427 ft 144 kts 213°
2026-05-07 22:35 42.24491 -83.31541 1232 ft 143 kts 214°
2026-05-07 22:35 42.23620 -83.32177 1071 ft 140 kts 213°
2026-05-07 22:35 42.22747 -83.32823 839 ft 142 kts 214°
2026-05-07 22:35 42.21891 -83.33461 681 ft 139 kts 211°
2026-05-07 22:36 42.21132 -83.34040 651 ft 105 kts 209°
2026-05-07 22:36 42.20648 -83.34382 650 ft 60 kts 208°
2026-05-07 22:36 42.20348 -83.34608 652 ft 44 kts 208°
2026-05-07 22:36 42.20281 -83.34653 651 ft 7 kts 205°
2026-05-07 22:37 42.20196 -83.34732 651 ft 17 kts 239°
2026-05-07 22:37 42.20184 -83.34897 649 ft 19 kts 268°
2026-05-07 22:37 42.20180 -83.35008 649 ft 12 kts 269°
2026-05-07 22:37 42.20177 -83.35129 649 ft 14 kts 268°
2026-05-07 22:38 42.20150 -83.35252 651 ft 9 kts 235°
2026-05-07 22:38 42.20140 -83.35267 649 ft 6 kts 226°
2026-05-07 22:38 42.20089 -83.35348 651 ft 12 kts 252°
2026-05-07 22:38 42.20081 -83.35474 651 ft 14 kts 265°
2026-05-07 22:39 42.20076 -83.35617 649 ft 16 kts 269°
2026-05-07 22:39 42.20073 -83.35779 649 ft 18 kts 268°
2026-05-07 22:39 42.20070 -83.35952 649 ft 19 kts 270°
2026-05-07 22:39 42.20067 -83.36133 649 ft 20 kts 271°
2026-05-07 22:40 42.20091 -83.36316 649 ft 20 kts 285°
2026-05-07 22:40 42.20116 -83.36502 649 ft 19 kts 279°
2026-05-07 22:40 42.20185 -83.36577 649 ft 15 kts 28°
2026-05-07 22:40 42.20274 -83.36514 649 ft 14 kts 28°
2026-05-07 22:41 42.20353 -83.36454 650 ft 12 kts 30°
2026-05-07 22:41 42.20425 -83.36401 649 ft 11 kts 28°
2026-05-07 22:41 42.20492 -83.36351 651 ft 12 kts 28°
2026-05-07 22:41 42.20592 -83.36274 649 ft 17 kts 28°
2026-05-07 22:42 42.20696 -83.36201 649 ft 16 kts 27°
2026-05-07 22:42 42.20794 -83.36130 651 ft 15 kts 30°
2026-05-07 22:42 42.20885 -83.36060 649 ft 15 kts 29°
2026-05-07 22:42 42.20972 -83.35999 649 ft 14 kts 27°
2026-05-07 22:43 42.21054 -83.35940 649 ft 13 kts 28°
2026-05-07 22:43 42.21147 -83.35870 650 ft 20 kts 27°
2026-05-07 22:43 42.21259 -83.35774 649 ft 16 kts 65°
2026-05-07 22:43 42.21289 -83.35644 649 ft 14 kts 47°
2026-05-07 22:44 42.21373 -83.35595 650 ft 13 kts 19°
2026-05-07 22:44 42.21451 -83.35546 649 ft 12 kts 30°
2026-05-07 22:44 42.21530 -83.35470 649 ft 17 kts 52°
2026-05-07 22:44 42.21551 -83.35330 649 ft 15 kts 86°
2026-05-07 22:45 42.21529 -83.35217 649 ft 11 kts 154°
2026-05-07 22:45 42.21463 -83.35234 649 ft 9 kts 177°
2026-05-07 22:45 42.21403 -83.35251 649 ft 9 kts 204°
2026-05-07 22:45 42.21347 -83.35282 649 ft 9 kts 201°
2026-05-07 22:46 42.21290 -83.35316 649 ft 9 kts 208°
2026-05-07 22:46 42.21234 -83.35360 649 ft 10 kts 211°
2026-05-07 22:46 42.21173 -83.35408 649 ft 11 kts 210°
2026-05-07 22:46 42.21104 -83.35454 649 ft 11 kts 207°
2026-05-07 22:47 42.21054 -83.35495 649 ft 1 kts 211°
2026-05-07 22:47 42.21044 -83.35503 649 ft 6 kts 211°
2026-05-07 22:47 42.20997 -83.35539 649 ft 8 kts 217°
2026-05-07 22:47 42.20990 -83.35594 649 ft 1 kts 289°
2026-05-07 22:48 42.20995 -83.35608 651 ft 2 kts 291°
2026-05-07 22:48 42.20997 -83.35617 650 ft 0 kts 291°